Location: Alafon
(8.4500°N, 4.2333°E)
Time: 01:03:34
(UTC+00:00)

Cosmos 1340 Rocket - Pass Details

Date: 05 July 2020
Orbit: 528 x 559 km, 81.2° (Epoch: 06 August)

Event Time Altitude Azimuth Distance (km) Brightness Sun altitude
Rises 18:34:41 0° 353° (N) 2,690 6.8 -7.4°
Reaches altitude 10° 18:36:50 10° 353° (N) 1,794 5.9 -7.9°
Maximum altitude 18:40:47 84° 267° (W) 542 2.8 -8.8°
Drops below altitude 10° 18:44:42 10° 177° (S) 1,780 5.1 -9.6°
Sets 18:46:50 0° 176° (S) 2,666 6.0 -10.1°
